TimeEST,TemperatureF,Dew PointF,Humidity,Sea Level PressureIn,VisibilityMPH,Wind Direction,Wind SpeedMPH,Gust SpeedMPH,PrecipitationIn,Events,Conditions,WindDirDegrees,DateUTC
12:52 AM,26.1,6.1,43,30.53,10.0,WNW,6.9,-,N/A,,Clear,290,2013-11-25 05:52:00
1:52 AM,26.1,6.1,43,30.54,10.0,WNW,8.1,-,N/A,,Clear,290,2013-11-25 06:52:00
2:52 AM,25.0,6.1,45,30.53,10.0,NNW,9.2,-,N/A,,Clear,330,2013-11-25 07:52:00
3:52 AM,25.0,6.1,45,30.56,10.0,WNW,9.2,-,N/A,,Clear,300,2013-11-25 08:52:00
4:52 AM,24.1,6.1,46,30.55,10.0,WNW,8.1,-,N/A,,Clear,290,2013-11-25 09:52:00
5:52 AM,24.1,6.1,46,30.56,10.0,WNW,5.8,-,N/A,,Clear,290,2013-11-25 10:52:00
6:52 AM,25.0,6.1,45,30.57,10.0,NW,8.1,-,N/A,,Mostly Cloudy,310,2013-11-25 11:52:00
7:52 AM,27.0,5.0,39,30.58,10.0,NNW,4.6,-,N/A,,Mostly Cloudy,330,2013-11-25 12:52:00
8:52 AM,28.9,6.1,38,30.60,10.0,SSW,3.5,-,N/A,,Overcast,200,2013-11-25 13:52:00
9:52 AM,28.9,7.0,40,30.59,10.0,Calm,Calm,-,N/A,,Overcast,0,2013-11-25 14:52:00
10:52 AM,32.0,6.1,34,30.57,10.0,SW,3.5,-,N/A,,Overcast,230,2013-11-25 15:52:00
11:52 AM,34.0,9.0,35,30.53,10.0,SSE,4.6,-,N/A,,Mostly Cloudy,160,2013-11-25 16:52:00
12:52 PM,35.1,9.0,34,30.50,10.0,SSE,8.1,-,N/A,,Scattered Clouds,160,2013-11-25 17:52:00
1:52 PM,36.0,9.0,33,30.47,10.0,South,11.5,-,N/A,,Mostly Cloudy,170,2013-11-25 18:52:00
2:52 PM,37.0,8.1,30,30.45,10.0,SSW,11.5,-,N/A,,Overcast,210,2013-11-25 19:52:00
3:52 PM,37.0,10.0,33,30.45,10.0,South,10.4,-,N/A,,Mostly Cloudy,180,2013-11-25 20:52:00
4:52 PM,36.0,10.9,36,30.43,10.0,South,10.4,-,N/A,,Mostly Cloudy,170,2013-11-25 21:52:00
5:52 PM,36.0,10.0,34,30.42,10.0,SSW,13.8,-,N/A,,Mostly Cloudy,200,2013-11-25 22:52:00
6:52 PM,35.1,10.0,35,30.44,10.0,SSW,12.7,-,N/A,,Mostly Cloudy,200,2013-11-25 23:52:00
7:52 PM,35.1,10.0,35,30.41,10.0,SSW,11.5,-,N/A,,Mostly Cloudy,200,2013-11-26 00:52:00
8:52 PM,35.1,10.0,35,30.38,10.0,SSW,11.5,-,N/A,,Mostly Cloudy,200,2013-11-26 01:52:00
9:52 PM,36.0,10.9,36,30.38,10.0,South,10.4,-,N/A,,Mostly Cloudy,190,2013-11-26 02:52:00
10:52 PM,36.0,12.0,37,30.38,10.0,South,10.4,-,N/A,,Mostly Cloudy,190,2013-11-26 03:52:00
11:52 PM,37.0,12.9,37,30.37,10.0,South,10.4,-,N/A,,Overcast,190,2013-11-26 04:52:00